Theta_e
321 321 320 318 319 324 318 315 315 314 319 322 324 326 326 326 327 327 325 333 332 330 329 329 328 327 326 326 325 325 324 324 324 324 323 323 323 324 324 324 324 326 327
321 320 321 319 318 321 321 316 317 313 314 320 322 324 324 324 323 323 323 324 331 329 329 329 328 327 326 325 324 323 323 322 322 322 322 322 322 321 322 322 321 323 324
320 322 320 318 318 319 319 317 316 314 313 314 318 321 323 323 322 321 321 320 324 329 329 329 328 327 326 326 325 323 322 321 321 320 320 320 320 320 320 321 321 321 322
322 322 317 314 316 318 319 317 315 316 313 312 312 316 320 321 320 319 319 318 316 317 325 328 328 327 326 325 324 323 322 321 320 319 319 319 319 319 320 320 320 320 320
324 317 315 316 318 318 319 318 314 315 313 312 312 311 314 318 319 320 317 316 314 315 315 326 327 327 326 325 324 322 320 319 318 318 317 317 318 318 319 319 320 320 319
321 316 316 317 319 319 315 314 312 311 312 311 317 313 311 313 318 318 317 317 313 313 312 314 316 318 325 325 324 322 321 319 316 315 315 315 316 317 317 318 319 320 319
319 318 318 318 319 318 313 312 312 309 309 309 313 312 313 313 313 314 316 314 312 313 312 313 312 313 317 325 324 324 322 319 317 315 314 314 315 316 317 318 318 318 319
318 319 321 319 312 309 311 312 311 309 311 308 305 306 305 311 314 314 312 314 313 312 312 313 312 312 313 315 317 325 324 321 318 316 314 314 315 316 318 318 317 317 317
320 320 320 319 311 309 307 310 310 309 307 306 306 306 305 305 305 309 313 312 312 310 311 312 312 312 312 313 319 321 325 323 320 318 316 316 316 317 317 317 317 316 316
320 322 320 319 312 310 311 310 313 309 306 305 306 308 307 306 301 299 307 310 312 310 309 307 310 312 312 311 317 321 323 324 322 319 318 318 319 318 318 317 316 316 316
318 321 321 319 312 310 310 309 308 307 308 309 306 304 304 303 302 298 297 300 305 310 308 307 307 308 310 311 311 315 324 326 324 321 319 319 318 317 316 316 316 316 316
315 317 319 316 314 310 310 308 307 308 311 307 309 304 302 300 299 300 299 301 300 304 308 310 307 309 309 311 315 320 321 324 323 323 321 318 318 317 317 316 316 315 315
313 314 315 314 313 310 310 308 308 308 308 309 307 307 305 303 300 301 301 301 303 305 307 309 309 309 312 310 315 322 325 324 322 320 320 321 318 316 317 316 315 314 314
316 315 315 315 314 312 311 309 308 309 309 307 307 305 304 304 306 302 303 302 302 301 305 304 308 307 311 311 313 321 316 322 321 320 319 319 318 317 317 315 314 313 312
318 317 317 316 314 313 312 311 309 308 308 307 309 304 303 304 306 309 308 307 304 299 300 304 302 307 310 311 312 313 315 317 322 320 318 316 317 317 317 315 314 312 312
318 319 318 316 315 316 316 311 310 309 310 309 307 307 305 305 306 309 305 306 306 305 301 301 304 306 307 309 310 311 313 318 319 319 318 315 314 315 316 316 315 313 312
325 324 322 320 318 317 316 311 310 308 310 308 309 308 307 308 305 308 305 305 308 308 305 303 308 309 307 304 306 306 307 305 305 311 315 316 315 314 314 314 314 314 313
326 324 322 320 319 319 315 313 313 312 312 310 310 308 308 311 306 306 305 308 308 309 305 301 305 306 303 301 302 301 304 306 304 308 313 315 314 312 312 313 313 313 312
320 321 321 320 319 319 317 316 314 313 312 312 311 309 309 309 307 308 306 308 308 310 307 305 304 306 301 299 298 299 301 300 303 308 309 311 310 311 311 311 311 311 309
318 319 317 316 317 318 319 318 315 313 313 314 314 312 312 311 310 309 309 309 308 307 306 305 304 302 298 298 297 296 295 295 296 301 304 306 308 308 309 309 311 312 310
322 321 319 318 318 317 318 317 317 315 314 314 313 314 314 314 315 313 311 309 308 307 306 305 301 296 297 298 296 295 293 292 294 295 296 297 297 297 299 304 307 309 308
324 322 321 321 319 320 314 312 316 316 316 316 315 315 315 316 316 314 314 312 310 307 305 302 300 296 298 295 293 293 292 291 291 295 294 295 295 296 298 298 305 306 306
320 319 319 320 317 319 311 309 311 316 317 316 316 316 313 315 314 312 311 311 311 310 309 305 303 301 298 299 296 295 294 290 290 293 293 292 293 294 297 300 303 306 305
317 319 318 317 316 319 310 307 308 312 314 317 316 314 312 312 312 310 310 309 308 307 307 308 306 306 304 302 300 299 296 292 291 293 294 291 292 293 295 296 303 305 304
315 315 317 317 316 318 310 307 306 311 312 313 313 313 312 312 307 305 309 307 307 307 310 309 307 305 303 301 301 296 295 292 292 290 292 291 291 292 293 294 298 304 302
315 317 316 315 314 316 309 305 307 311 312 312 311 311 308 309 302 302 306 305 302 304 307 306 304 302 301 300 303 297 294 293 291 289 293 292 290 290 290 293 294 296 297
Wind_Speed
1 1 1 2 2 1 2 3 2 3 5 5 5 6 5 5 6 3 2 13 14 13 15 14 14 14 14 14 14 14 14 14 14 15 14 14 14 13 13 14 14 13 13
2 2 1 1 2 2 2 1 3 3 3 3 5 4 5 4 5 5 3 5 12 13 14 14 13 13 13 13 13 13 13 13 13 12 12 12 12 12 12 13 13 12 14
3 3 3 3 2 1 4 3 3 4 3 2 3 4 4 5 4 5 4 3 6 13 13 13 13 12 12 11 12 12 11 11 10 10 9 10 9 10 11 12 13 13 13
4 4 4 3 2 2 3 2 1 2 3 3 2 2 3 4 5 5 4 4 3 3 10 12 12 11 10 10 10 9 9 8 7 7 6 7 7 8 10 11 12 12 13
5 5 4 2 3 2 3 1 1 2 2 3 3 3 3 3 5 4 5 5 5 4 3 10 11 11 10 9 8 8 7 6 4 4 3 4 5 6 7 8 10 11 11
5 5 4 4 2 3 3 2 2 2 2 2 3 4 3 3 2 4 4 3 4 4 4 4 3 4 10 9 8 7 7 6 4 3 3 4 5 7 7 8 9 10 11
5 6 4 3 3 3 2 3 3 2 0 1 3 2 1 3 4 4 3 3 5 5 5 4 3 3 4 11 10 9 7 5 4 3 2 0 3 5 7 10 12 14 12
4 4 5 4 4 1 1 1 1 1 0 1 3 2 1 2 2 5 4 5 6 4 5 6 5 5 5 4 6 11 8 6 5 4 2 2 3 5 8 10 13 15 16
3 4 4 4 3 2 3 2 2 3 3 1 1 4 2 4 0 1 5 4 6 5 5 5 6 6 6 5 7 8 11 9 8 6 5 6 7 8 9 11 14 16 17
5 4 4 3 3 2 3 3 3 3 3 3 1 1 1 3 3 2 2 3 4 5 5 4 5 7 7 4 8 10 11 12 11 8 7 8 10 11 11 12 13 14 16
4 4 4 3 4 3 3 3 3 3 2 3 3 1 1 1 2 3 3 2 2 2 3 4 5 5 6 5 4 8 13 14 12 9 9 10 11 12 12 13 14 14 16
3 5 5 5 4 4 4 4 3 4 3 3 2 3 3 3 3 2 1 1 1 2 1 3 4 4 3 4 7 12 15 15 9 10 9 12 12 12 12 12 13 14 15
3 6 5 5 4 4 4 4 4 4 5 4 5 3 2 2 2 2 3 2 1 2 2 2 2 3 4 3 4 9 11 12 10 9 10 12 12 12 13 12 12 13 13
4 3 5 5 6 6 5 5 3 4 4 3 5 3 2 2 2 3 3 3 1 2 2 1 2 1 1 1 2 10 6 14 10 10 11 10 9 12 13 11 11 11 12
4 5 5 5 6 6 6 6 4 4 4 4 4 4 2 2 2 2 2 2 3 2 2 2 0 2 1 2 5 6 6 10 12 10 10 10 8 10 10 11 11 11 12
6 6 6 6 6 7 7 6 4 4 5 3 4 5 4 3 3 2 2 2 2 3 2 3 2 1 3 3 4 3 5 11 9 7 8 7 9 10 11 13 11 12 12
6 7 7 7 8 8 7 6 6 6 6 6 5 5 6 4 4 4 3 2 3 3 3 2 1 2 2 4 5 2 3 3 1 5 7 9 11 11 12 13 12 12 12
6 6 6 6 7 8 7 7 9 7 7 6 7 5 6 4 5 5 4 4 3 3 3 4 0 1 2 2 2 1 3 3 4 6 10 12 9 9 10 12 12 12 11
4 4 4 5 6 8 8 8 7 7 7 8 7 7 7 6 6 4 4 4 3 3 3 3 3 2 3 3 2 2 3 3 3 10 10 8 9 9 11 10 9 9 10
5 5 5 5 6 6 7 8 8 7 8 8 8 9 6 7 8 6 4 5 4 4 3 3 2 3 3 1 1 1 2 1 3 3 7 6 10 11 11 11 10 10 7
5 5 5 5 5 5 5 6 6 8 8 8 7 8 8 11 12 9 6 5 5 3 3 4 3 3 2 2 3 2 2 2 3 2 3 3 4 4 4 6 8 10 8
6 6 7 6 6 5 9 10 9 8 10 10 10 9 9 15 14 16 15 10 7 5 4 4 2 3 4 3 3 3 2 1 2 1 2 5 2 4 4 4 9 10 8
4 6 6 5 7 7 11 12 13 8 9 9 10 8 7 7 10 10 9 9 11 12 9 6 5 6 4 5 4 4 3 2 4 3 2 4 2 4 4 5 9 7 3
4 5 5 6 6 7 10 11 10 6 6 9 9 9 10 10 11 10 7 6 6 6 7 5 7 6 6 5 6 5 6 4 3 3 3 3 2 4 4 4 8 7 5
4 4 5 6 6 8 10 10 3 4 5 7 7 8 9 10 10 11 7 6 6 6 5 9 11 11 8 9 7 5 3 3 2 2 2 3 2 3 2 4 4 8 8
5 5 7 6 8 8 8 8 6 3 5 5 5 6 11 10 13 12 7 6 6 5 4 4 2 1 3 5 13 7 5 3 2 2 3 4 1 0 5 3 3 3 4
Wind_Direction
166 138 359 33 45 67 110 108 129 80 113 114 117 122 118 106 103 96 86 108 107 109 96 98 98 97 95 91 87 85 80 74 69 64 58 51 43 37 28 23 16 19 17
152 98 82 73 64 56 64 123 119 119 108 139 136 133 132 115 114 116 111 118 119 115 118 117 112 110 107 102 98 93 88 82 75 70 64 56 48 42 39 32 21 11 10
111 122 127 112 91 49 105 63 53 110 99 58 159 152 145 149 139 135 130 119 131 136 137 136 133 127 122 116 112 106 97 90 82 74 65 59 47 39 30 25 19 15 5
113 99 90 78 61 56 77 76 60 56 130 147 167 199 177 160 160 159 155 152 153 159 153 154 153 148 141 133 127 122 116 106 96 82 63 55 41 31 26 16 11 8 10
100 98 92 89 99 65 82 140 96 160 151 165 175 203 209 202 179 171 177 177 186 172 185 175 172 164 160 155 148 141 136 134 137 113 81 32 18 8 5 357 352 350 356
100 116 106 97 97 76 35 100 102 61 155 168 204 171 207 241 249 189 197 194 196 189 203 237 197 198 185 179 178 174 168 161 154 113 75 34 15 12 358 346 329 325 330
143 136 115 94 26 90 176 161 138 158 285 138 99 58 233 219 218 235 213 206 212 200 202 224 222 223 226 202 202 203 198 186 171 166 144 58 352 4 354 348 346 338 310
146 138 126 87 68 28 304 65 121 126 264 199 138 108 204 308 247 229 218 211 223 207 215 218 209 217 226 243 226 225 223 214 211 215 208 246 287 319 340 341 341 340 336
163 149 150 125 124 158 229 212 159 159 194 292 254 146 109 225 300 221 211 210 214 208 221 215 213 218 222 227 232 238 236 237 237 240 245 263 284 309 331 338 336 338 340
174 181 173 140 179 200 225 212 171 164 145 198 322 28 95 146 179 313 324 241 198 209 222 215 217 218 219 217 231 234 252 243 245 252 265 282 302 309 318 327 326 327 331
206 207 199 181 188 203 207 198 184 177 176 167 176 162 106 84 111 130 255 303 327 280 242 237 218 221 210 220 208 227 239 238 235 254 264 281 305 312 313 316 315 320 330
226 228 216 215 212 207 207 205 189 179 189 168 151 158 176 164 194 147 195 281 239 290 283 255 192 205 184 207 245 249 241 246 234 247 252 272 290 302 302 301 308 317 325
233 230 218 223 221 217 209 201 198 193 184 177 181 193 158 163 149 152 120 233 256 289 311 22 158 159 153 158 193 260 251 236 234 247 257 264 272 286 290 293 298 310 323
217 219 227 222 222 218 213 204 202 206 190 181 179 196 162 176 159 167 171 154 224 326 331 340 352 316 74 355 252 243 236 248 238 232 245 256 273 283 283 279 287 302 310
223 225 219 222 226 218 211 197 210 213 173 198 210 173 177 221 182 188 169 148 155 200 269 304 278 352 333 320 256 270 247 238 243 230 241 258 275 277 272 274 279 290 295
212 219 217 210 219 218 210 194 200 209 208 202 193 182 183 189 197 165 148 147 144 146 207 201 262 305 281 287 280 279 244 234 254 249 251 260 261 268 262 266 268 274 285
218 214 221 217 210 212 213 198 207 208 213 209 207 199 203 193 194 199 171 187 168 152 183 275 212 249 280 3 318 338 50 59 349 318 298 287 270 280 275 273 273 272 275
205 214 207 213 216 215 207 206 215 208 210 211 210 207 218 189 206 204 184 193 188 178 154 196 257 274 270 241 285 46 28 28 349 319 317 302 307 300 302 290 277 271 266
228 232 222 218 214 215 213 216 215 211 210 218 213 210 213 198 211 201 194 194 178 159 165 144 237 216 247 242 273 21 21 339 322 321 304 325 310 309 306 308 299 287 279
217 225 234 239 233 226 226 215 212 218 227 223 216 224 218 206 205 192 198 205 174 157 167 189 221 246 231 246 69 141 318 317 310 314 313 310 301 303 300 297 291 292 284
215 219 221 233 235 227 229 215 219 229 229 235 221 216 220 222 190 188 201 200 170 192 190 208 207 205 233 207 198 194 189 305 290 245 299 299 316 320 308 317 318 310 305
218 213 210 213 225 229 233 230 230 229 235 232 235 229 217 215 200 193 189 180 178 198 211 187 200 216 228 209 189 184 186 110 333 276 318 300 357 312 299 313 303 304 274
263 249 251 234 237 228 223 231 230 239 245 237 237 229 215 216 194 188 192 218 234 229 209 178 201 215 221 199 189 174 198 185 212 261 88 286 333 296 286 302 312 324 319
265 270 269 263 254 254 235 233 234 229 238 247 240 221 207 200 191 184 182 204 220 221 222 213 213 230 212 207 190 175 181 185 265 268 154 248 281 270 311 299 297 337 359
282 274 268 272 254 261 255 240 211 242 247 248 231 216 204 202 186 164 185 201 226 240 217 230 217 223 220 214 173 129 178 166 276 279 204 199 278 295 305 299 300 318 333
295 292 284 263 256 263 271 266 232 209 248 254 237 227 205 186 172 179 194 205 224 235 224 239 231 291 245 206 181 192 152 174 168 318 236 177 276 117 321 268 289 306 320